Regional Weather Roundup
Issued by NWS Sterling, VA

Home | Current Version | Previous Version | Graphics & Text | Print | Product List | Glossary On
Versions: 1 2 3 4 5 6 7 8 9 10 11 12 13 14 15 16 17 18 19 20 21 22 23 24 25 26 27 28 29 30 31 32 33 34 35 36 37 38 39 40 41 42 43 44 45 46 47 48 49 50
756
ASUS41 KLWX 231211
RWRLWX

REGIONAL WEATHER ROUNDUP
NATIONAL WEATHER SERVICE BALTIMORE MD/WASHINGTON DC
800 AM EDT FRI JUN 23 2017

Note: "FAIR" indicates few or no clouds below 12,000 feet
with no significant weather and/or obstructions to visibility.
 TC=TEMPERATURE CELSIUS

 * =Non NWS site. Station does not report precipitation (e.g. rain,
    snow, etc.), thunder, or fog.

DCZ001-MDZ009-015-VAZ040>042-051-053>054-231300-
WASHINGTON METRO

CITY           SKY/WX    TMP DP  RH WIND       PRES   REMARKS
WASHINGTON NAT CLOUDY    74  73  97 S15       29.87F
DULLES         CLOUDY    72  69  90 S13       29.86F
ANDREWS AFB    LGT RAIN  72  70  94 S10       29.87F
FT BELVOIR     CLOUDY    73  70  88 S5        29.87F
QUANTICO       LGT RAIN  75  73  93 SW14      29.88F
COLLEGE PARK*  CLOUDY    72  70  94 S3        29.87F
LEESBURG*      CLOUDY    73  73 100 S10       29.87F
MANASSAS*      CLOUDY    72  70  93 S8        29.87F
GAITHERSBURG*  CLOUDY    72  70  93 S7        29.88F

$$

MDZ006>007-011-014-231300-
BALTIMORE METRO

CITY           SKY/WX    TMP DP  RH WIND       PRES   REMARKS
BWI AIRPORT    LGT RAIN  71  71 100 S6        29.86F FOG
MD SCIENCE CTR   N/A     74  72  93 MISG      29.87S
MARTIN STATE   RAIN      73  73 100 SW14G20   29.89R
ANNAPOLIS      LGT RAIN  73  73 100 CALM      29.88S FOG
FORT MEADE*    CLOUDY    70  68  94 CALM      29.90F

$$

MDZ012-015-019>023-231300-
MARYLAND EASTERN SHORE

CITY           SKY/WX    TMP DP  RH WIND       PRES   REMARKS
OCEAN CITY     CLOUDY    78  72  81 W10       29.92S
SALISBURY      LGT RAIN  78  70  76 SW21G26   29.93R
BAY BRIDGE AP* HVY RAIN  72  72 100 SW10G22   29.90R FOG
CAMBRIDGE*     CLOUDY    72  70  94 VRB7G21   29.93R FOG
EASTON*        RAIN      73  70  88 SW9G20    29.95R

$$

MDZ017>025-231300-
SOUTHERN MARYLAND

CITY           SKY/WX    TMP DP  RH WIND       PRES   REMARKS
PATUXENT RIVER LGT RAIN  72  71  97 S7        29.91F
ST INIGOES     LGT RAIN  74  72  93 S7        29.91F FOG
LEONARDTOWN*   CLOUDY    72  70  94 S5        29.93F

$$

MDZ003>005-231300-
NORTH CENTRAL MARYLAND

CITY           SKY/WX    TMP DP  RH WIND       PRES   REMARKS
FREDERICK*     CLOUDY    73  73 100 S5        29.88S
HAGERSTOWN APT LGT RAIN  72  70  93 S13       29.84S FOG
WESTMINSTER*   RAIN      72  72 100 SW10      29.87R

$$

MDZ501>502-231300-
WESTERN MARYLAND

CITY           SKY/WX    TMP DP  RH WIND       PRES   REMARKS
OAKLAND*       NOT AVBL
CUMBERLAND*    CLOUDY    70  70 100 SE5       29.87S

$$

VAZ025>031-231300-
SHENANDOAH VALLEY

CITY           SKY/WX    TMP DP  RH WIND       PRES   REMARKS
WINCHESTER*    CLOUDY    70  68  94 SW7       29.85F
FRONT ROYAL*   CLOUDY    70  68  94 SW7       29.85F
LURAY*         PTSUNNY   72  68  88 SW12      29.88F
NEW MARKET*    CLOUDY    71  67  87 SW7       29.88S
STAUNTON*      CLOUDY    71  68  91 S6        29.93F
WAYNESBORO*    CLOUDY    71  70  97 SW3       29.94S

$$

WVZ021-048>050-054>055-231300-
EASTERN WEST VIRGINIA PANHANDLE

CITY           SKY/WX    TMP DP  RH WIND       PRES   REMARKS
MARTINSBURG    CLOUDY    71  69  93 S6        29.83F
PETERSBURG*    DRIZZLE   72  69  91 S8        29.86S

$$

VAZ036>039-050-231300-
CENTRAL FOOTHILLS

CITY           SKY/WX    TMP DP  RH WIND       PRES   REMARKS
CHARLOTTESVILL PTSUNNY   74  71  91 S10       29.90S
CULPEPER*      PTSUNNY   73  72  94 S8        29.89F
ORANGE*        CLOUDY    72  70  94 SW10G16   29.89S
GORDONSVILLE*  CLOUDY    72  72  99 SW12      29.89F
WARRENTON*     CLOUDY    73  69  85 S6        29.87F

$$

VAZ055>057-231300-
NORTH AND CENTRAL PIEDMONT

CITY           SKY/WX    TMP DP  RH WIND       PRES   REMARKS
FREDERICKSBRG* CLOUDY    74  74 100 S9        29.88F
STAFFORD*      CLOUDY    72  72 100 SW5       29.93S

$$

NCZ024-NYZ072-PAZ021-071-VAZ022-071-231300-
OTHER REGIONAL OBSERVATIONS

CITY           SKY/WX    TMP DP  RH WIND       PRES   REMARKS
NEW YORK CITY  CLOUDY    79  71  76 VRB5      29.85S
PHILADELPHIA   CLOUDY    77  72  84 SW12      29.85S
PITTSBURGH     CLOUDY    69  69 100 SW6       29.79S
ROANOKE        CLOUDY    74  70  87 CALM      29.97S
RICHMOND       CLOUDY    74  73  97 S10       29.94F
RALEIGH        LGT RAIN  75  74  96 SW10      30.01S FOG

$$

ANZ530>537-231300-
MARINE OBSERVATIONS

STATION/POSITION TIME  TEMP    WIND        PRES
                       AIR SEA DIR/SP/G
                 (UTC) (F)     (DEG/KT/KT) (MB)
THOMAS PT LIGHT  1200   73 77  220/  9/ 10   N/A
BALT KEY BRIDGE  1148   72     230/ 12/ 14 1011.2R
COVE POINT       1148   72     220/ 12/ 15 1013.4F
LEWISETTA        1148   74 79  220/  7/  8 1013.3F
SOLOMONS ISLAND  1148   73 76  200/  9/ 10   N/A
PINEY POINT      1142          220/  7/  9   N/A

$$





USA.gov is the U.S. government's official web portal to all federal, state and local government web resources and services.